| time (UTC) | temp F | wind direction | speed MPH | gust MPH | rain 1hr in | rain 24hr in | rain mn in | humidity % | barometer mb |
| 20260906095403 | 66 | 22 | 2.0 | 7.0 | 0.00 | 0.00 | 0.00 | 1013.9 | |
| 20260906094903 | 66 | 51 | 2.0 | 6.0 | 0.00 | 0.00 | 0.00 | 1013.6 | |
| 20260906094403 | 66 | 56 | 2.0 | 6.0 | 0.00 | 0.00 | 0.00 | 1013.6 | |
| 20260906093903 | 66 | 40 | 3.0 | 6.0 | 0.00 | 0.00 | 0.00 | 1013.9 | |
| 20260906093403 | 66 | 54 | 1.0 | 5.0 | 0.00 | 0.00 | 0.00 | 1014.3 | |
| 20260906092903 | 66 | 40 | 2.0 | 6.0 | 0.00 | 0.00 | 0.00 | 1013.9 | |
| 20260906092404 | 66 | 7 | 0.0 | 6.0 | 0.00 | 0.00 | 0.00 | 1014.3 | |
| 20260906090902 | 66 | 317 | 0.0 | 6.0 | 0.00 | 0.00 | 0.00 | 1014.3 | |
| 20260906090403 | 66 | 48 | 1.0 | 4.0 | 0.00 | 0.00 | 0.00 | 1014.3 | |
| 20260906085903 | 66 | 59 | 1.0 | 5.0 | 0.00 | 0.00 | 0.00 | 1013.9 | |
| 20260906085403 | 66 | 53 | 2.0 | 5.0 | 0.00 | 0.00 | 0.00 | 1013.9 | |
| 20260906084902 | 66 | 20 | 1.0 | 4.0 | 0.00 | 0.00 | 0.00 | 1013.2 | |
| 20260906084403 | 67 | 41 | 0.0 | 5.0 | 0.00 | 0.00 | 0.00 | 1013.6 | |
| 20260906083902 | 67 | 50 | 1.0 | 5.0 | 0.00 | 0.00 | 0.00 | 1013.6 | |
| 20260906083403 | 67 | 29 | 1.0 | 5.0 | 0.00 | 0.00 | 0.00 | 1013.9 | |
| 20260906082903 | 67 | 52 | 2.0 | 5.0 | 0.00 | 0.00 | 0.00 | 1013.6 | |
| 20260906082403 | 67 | 50 | 2.0 | 5.0 | 0.00 | 0.00 | 0.00 | 1013.2 | |
| 20260906081903 | 67 | 57 | 3.0 | 5.0 | 0.00 | 0.00 | 0.00 | 1013.9 | |
| 20260906080403 | 67 | 34 | 1.0 | 8.0 | 0.00 | 0.00 | 0.00 | 1014.3 | |
| 20260906075903 | 67 | 50 | 2.0 | 8.0 | 0.00 | 0.00 | 0.00 | 1013.2 | |
| 20260906075424 | 67 | 49 | 2.0 | 8.0 | 0.00 | 0.00 | 0.00 | 1013.6 | |
| 20260906074903 | 67 | 62 | 3.0 | 8.0 | 0.00 | 0.00 | 0.00 | 1014.3 | |
| 20260906074424 | 67 | 74 | 2.0 | 8.0 | 0.00 | 0.00 | 0.00 | 1013.6 | |
| 20260906073903 | 68 | 52 | 3.0 | 8.0 | 0.00 | 0.00 | 0.00 | 1013.9 | |
| 20260906073403 | 67 | 34 | 3.0 | 7.0 | 0.00 | 0.00 | 0.00 | 1013.6 | |
| 20260906071903 | 68 | 55 | 2.0 | 5.0 | 0.00 | 0.00 | 0.00 | 1013.9 | |
| 20260906071403 | 68 | 53 | 2.0 | 5.0 | 0.00 | 0.00 | 0.00 | 1013.9 | |
| 20260906070903 | 68 | 38 | 1.0 | 5.0 | 0.00 | 0.00 | 0.00 | 1014.3 | |
| 20260906070403 | 68 | 79 | 2.0 | 6.0 | 0.00 | 0.00 | 0.00 | 1014.3 | |
| 20260906065903 | 68 | 5 | 1.0 | 6.0 | 0.00 | 0.00 | 0.00 | 1013.6 | |
| 20260906065402 | 68 | 63 | 2.0 | 5.0 | 0.00 | 0.00 | 0.00 | 1013.2 | |
| 20260906064903 | 68 | 49 | 3.0 | 6.0 | 0.00 | 0.00 | 0.00 | 1013.6 | |
| 20260906064403 | 68 | 43 | 2.0 | 6.0 | 0.00 | 0.00 | 0.00 | 1013.6 | |
| 20260906063903 | 68 | 57 | 2.0 | 6.0 | 0.00 | 0.00 | 0.00 | 1013.9 | |
| 20260906063424 | 69 | 52 | 2.0 | 6.0 | 0.00 | 0.00 | 0.00 | 1013.9 | |
| 20260906062903 | 69 | 68 | 2.0 | 8.0 | 0.00 | 0.00 | 0.00 | 1014.3 | |
| 20260906062424 | 69 | 42 | 3.0 | 8.0 | 0.00 | 0.00 | 0.00 | 1014.3 | |
| 20260906061924 | 69 | 14 | 2.0 | 7.0 | 0.00 | 0.00 | 0.00 | 1013.9 | |
| 20260906061424 | 69 | 62 | 3.0 | 6.0 | 0.00 | 0.00 | 0.00 | 1013.9 | |
| 20260906060903 | 69 | 65 | 2.0 | 5.0 | 0.00 | 0.00 | 0.00 | 1013.6 | |
| 20260906060402 | 69 | 48 | 1.0 | 6.0 | 0.00 | 0.00 | 0.00 | 1014.3 | |
| 20260906055903 | 69 | 22 | 2.0 | 6.0 | 0.00 | 0.00 | 0.00 | 1013.6 | |
| 20260906055423 | 69 | 16 | 2.0 | 7.0 | 0.00 | 0.00 | 0.00 | 1013.9 | |
| 20260906054924 | 69 | 37 | 2.0 | 7.0 | 0.00 | 0.00 | 0.00 | 1013.2 | |
| 20260906054402 | 69 | 42 | 3.0 | 6.0 | 0.00 | 0.00 | 0.00 | 1013.6 | |
| 20260906053903 | 69 | 72 | 2.0 | 6.0 | 0.00 | 0.00 | 0.00 | 1013.9 | |
| 20260906053403 | 69 | 68 | 2.0 | 5.0 | 0.00 | 0.00 | 0.00 | 1013.6 | |
| 20260906052904 | 70 | 68 | 2.0 | 5.0 | 0.00 | 0.00 | 0.00 | 1013.9 | |
| 20260906052402 | 70 | 79 | 1.0 | 3.0 | 0.00 | 0.00 | 0.00 | 1013.2 | |
| 20260906051903 | 70 | 65 | 1.0 | 5.0 | 0.00 | 0.00 | 0.00 | 1012.9 | |
| 20260906051403 | 70 | 77 | 3.0 | 6.0 | 0.00 | 0.00 | 0.00 | 1013.2 | |
| 20260906050924 | 70 | 57 | 2.0 | 6.0 | 0.00 | 0.00 | 0.00 | 1013.6 | |
| 20260906050403 | 70 | 53 | 3.0 | 6.0 | 0.00 | 0.00 | 0.00 | 1013.2 | |
| 20260906045903 | 70 | 62 | 1.0 | 6.0 | 0.00 | 0.00 | 0.00 | 1012.9 | |
| 20260906044403 | 70 | 43 | 2.0 | 7.0 | 0.00 | 0.00 | 0.00 | 1012.9 | |
| 20260906043902 | 71 | 49 | 4.0 | 7.0 | 0.00 | 0.00 | 0.00 | 1012.9 | |
| 20260906043424 | 71 | 29 | 1.0 | 5.0 | 0.00 | 0.00 | 0.00 | 1012.6 | |
| 20260906042903 | 71 | 42 | 2.0 | 5.0 | 0.00 | 0.00 | 0.00 | 1012.6 | |
| 20260906042403 | 71 | 23 | 1.0 | 5.0 | 0.00 | 0.00 | 0.00 | 1012.9 | |
| 20260906041903 | 71 | 6 | 2.0 | 5.0 | 0.00 | 0.00 | 0.00 | 1012.9 | |
| 20260906041424 | 72 | 17 | 1.0 | 4.0 | 0.00 | 0.00 | 0.00 | 1013.2 | |
| 20260906040924 | 72 | 23 | 0.0 | 6.0 | 0.00 | 0.00 | 0.00 | 1012.6 | |
| 20260906040403 | 72 | 72 | 2.0 | 6.0 | 0.00 | 0.00 | 0.00 | 1012.6 | |
| 20260906035924 | 72 | 63 | 2.0 | 6.0 | 0.00 | 0.00 | 0.00 | 1012.6 | |
| 20260906035425 | 72 | 54 | 3.0 | 9.0 | 0.00 | 0.00 | 0.00 | 1012.9 | |
| 20260906034924 | 72 | 73 | 2.0 | 9.0 | 0.00 | 0.00 | 0.00 | 1012.9 | |
| 20260906034424 | 72 | 60 | 2.0 | 9.0 | 0.00 | 0.00 | 0.00 | 1012.6 | |
| 20260906033903 | 73 | 34 | 3.0 | 5.0 | 0.00 | 0.00 | 0.00 | 1013.2 | |
| 20260906033403 | 73 | 92 | 0.0 | 6.0 | 0.00 | 0.00 | 0.00 | 1012.6 | |
| 20260906032903 | 73 | 81 | 2.0 | 7.0 | 0.00 | 0.00 | 0.00 | 1013.2 | |
| 20260906032403 | 73 | 59 | 4.0 | 10.0 | 0.00 | 0.00 | 0.00 | 1013.2 | |
| 20260906031924 | 73 | 55 | 3.0 | 10.0 | 0.00 | 0.00 | 0.00 | 1013.6 | |
| 20260906031403 | 73 | 40 | 2.0 | 9.0 | 0.00 | 0.00 | 0.00 | 1013.2 | |
| 20260906030903 | 74 | 53 | 3.0 | 9.0 | 0.00 | 0.00 | 0.00 | 1013.2 | |
| 20260906030403 | 74 | 29 | 3.0 | 7.0 | 0.00 | 0.00 | 0.00 | 1013.2 | |
| 20260906025903 | 74 | 46 | 2.0 | 7.0 | 0.00 | 0.00 | 0.00 | 1012.9 | |
| 20260906025403 | 74 | 38 | 1.0 | 7.0 | 0.00 | 0.00 | 0.00 | 1012.9 | |
| 20260906024903 | 74 | 54 | 3.0 | 7.0 | 0.00 | 0.00 | 0.00 | 1012.9 | |
| 20260906024404 | 74 | 46 | 3.0 | 9.0 | 0.00 | 0.00 | 0.00 | 1012.9 | |
| 20260906023924 | 74 | 43 | 4.0 | 9.0 | 0.00 | 0.00 | 0.00 | 1013.2 | |
| 20260906023403 | 74 | 34 | 2.0 | 9.0 | 0.00 | 0.00 | 0.00 | 1012.9 | |
| 20260906022924 | 74 | 67 | 1.0 | 7.0 | 0.00 | 0.00 | 0.00 | 1012.9 | |
| 20260906022403 | 74 | 34 | 1.0 | 7.0 | 0.00 | 0.00 | 0.00 | 1013.2 | |
| 20260906021902 | 74 | 39 | 2.0 | 7.0 | 0.00 | 0.00 | 0.00 | 1013.6 | |
| 20260906021403 | 74 | 31 | 2.0 | 7.0 | 0.00 | 0.00 | 0.00 | 1013.2 | |
| 20260906020903 | 74 | 23 | 2.0 | 6.0 | 0.00 | 0.00 | 0.00 | 1013.2 | |
| 20260906020403 | 74 | 37 | 1.0 | 6.0 | 0.00 | 0.00 | 0.00 | 1013.6 | |
| 20260906015903 | 74 | 9 | 0.0 | 6.0 | 0.00 | 0.00 | 0.00 | 1012.9 | |
| 20260906015403 | 74 | 36 | 0.0 | 6.0 | 0.00 | 0.00 | 0.00 | 1013.2 | |
| 20260906014903 | 74 | 34 | 0.0 | 6.0 | 0.00 | 0.00 | 0.00 | 1013.2 | |
| 20260906014403 | 74 | 73 | 0.0 | 6.0 | 0.00 | 0.00 | 0.00 | 1012.9 | |
| 20260906013903 | 75 | 54 | 0.0 | 6.0 | 0.00 | 0.00 | 0.00 | 1013.2 | |
| 20260906013403 | 75 | 349 | 1.0 | 6.0 | 0.00 | 0.00 | 0.00 | 1012.9 | |
| 20260906012902 | 75 | 59 | 0.0 | 3.0 | 0.00 | 0.00 | 0.00 | 1012.9 | |
| 20260906012403 | 75 | 40 | 1.0 | 5.0 | 0.00 | 0.00 | 0.00 | 1012.2 | |
| 20260906011902 | 75 | 62 | 1.0 | 5.0 | 0.00 | 0.00 | 0.00 | 1012.6 | |
| 20260906011424 | 75 | 44 | 1.0 | 3.0 | 0.00 | 0.00 | 0.00 | 1012.2 | |
| 20260906010903 | 75 | 21 | 0.0 | 4.0 | 0.00 | 0.00 | 0.00 | 1012.6 | |
| 20260906010402 | 75 | 64 | 2.0 | 4.0 | 0.00 | 0.00 | 0.00 | 1012.9 | |
| 20260906005903 | 75 | 69 | 2.0 | 4.0 | 0.00 | 0.00 | 0.00 | 1012.6 | |
| 20260906005402 | 75 | 71 | 0.0 | 4.0 | 0.00 | 0.00 | 0.00 | 1012.6 | |
| 20260906004903 | 75 | 64 | 1.0 | 3.0 | 0.00 | 0.00 | 0.00 | 1012.2 | |
| 20260906004424 | 75 | 87 | 1.0 | 5.0 | 0.00 | 0.00 | 0.00 | 1012.2 | |
| 20260906003924 | 76 | 356 | 0.0 | 6.0 | 0.00 | 0.00 | 0.00 | 1012.2 | |
| 20260906003424 | 76 | 36 | 0.0 | 6.0 | 0.00 | 0.00 | 0.00 | 1012.2 | |
| 20260906002904 | 76 | 67 | 1.0 | 6.0 | 0.00 | 0.00 | 0.00 | 1012.2 | |
| 20260906002403 | 76 | 59 | 3.0 | 6.0 | 0.00 | 0.00 | 0.00 | 1011.9 | |
| 20260906001903 | 76 | 17 | 1.0 | 6.0 | 0.00 | 0.00 | 0.00 | 1012.2 | |
| 20260906001403 | 76 | 55 | 3.0 | 10.0 | 0.00 | 0.00 | 0.00 | 1011.9 | |
| 20260906000903 | 77 | 70 | 2.0 | 10.0 | 0.00 | 0.00 | 0.00 | 1012.2 | |
| 20260906000403 | 77 | 35 | 2.0 | 6.0 | 0.00 | 0.00 | 0.00 | 1012.2 | |
| 20260905235923 | 77 | 56 | 1.0 | 6.0 | 0.00 | 0.00 | 0.00 | 1011.9 | |
| 20260905235403 | 77 | 62 | 0.0 | 6.0 | 0.00 | 0.00 | 0.00 | 1012.2 | |
| 20260905234903 | 77 | 337 | 0.0 | 6.0 | 0.00 | 0.00 | 0.00 | 1012.9 | |
| 20260905234424 | 76 | 93 | 1.0 | 6.0 | 0.00 | 0.00 | 0.00 | 1011.9 | |
| 20260905233902 | 76 | 225 | 0.0 | 6.0 | 0.00 | 0.00 | 0.00 | 1012.2 | |
| 20260905233404 | 76 | 293 | 0.0 | 6.0 | 0.00 | 0.00 | 0.00 | 1011.9 | |
| 20260905232903 | 77 | 65 | 0.0 | 6.0 | 0.00 | 0.00 | 0.00 | 1011.5 | |
| 20260905232403 | 77 | 55 | 1.0 | 6.0 | 0.00 | 0.00 | 0.00 | 1011.9 | |
| 20260905231903 | 77 | 56 | 0.0 | 6.0 | 0.00 | 0.00 | 0.00 | 1012.2 | |
| 20260905231403 | 77 | 345 | 0.0 | 6.0 | 0.00 | 0.00 | 0.00 | 1011.9 | |
| 20260905230903 | 77 | 35 | 0.0 | 6.0 | 0.00 | 0.00 | 0.00 | 1011.9 | |
| 20260905230425 | 77 | 2 | 0.0 | 6.0 | 0.00 | 0.00 | 0.00 | 1012.2 | |
| 20260905225903 | 77 | 337 | 0.0 | 6.0 | 0.00 | 0.00 | 0.00 | 1011.5 | |
| 20260905225403 | 77 | 81 | 0.0 | 7.0 | 0.00 | 0.00 | 0.00 | 1011.5 | |
| 20260905224924 | 77 | 335 | 0.0 | 7.0 | 0.00 | 0.00 | 0.00 | 1011.9 | |
| 20260905224403 | 79 | 287 | 3.0 | 6.0 | 0.00 | 0.00 | 0.00 | 1011.9 | |
| 20260905223903 | 80 | 87 | 1.0 | 4.0 | 0.00 | 0.00 | 0.00 | 1011.5 | |
| 20260905223403 | 80 | 332 | 0.0 | 3.0 | 0.00 | 0.00 | 0.00 | 1011.5 | |
| 20260905222903 | 81 | 48 | 0.0 | 3.0 | 0.00 | 0.00 | 0.00 | 1011.5 | |
| 20260905222403 | 81 | 66 | 2.0 | 3.0 | 0.00 | 0.00 | 0.00 | 1011.5 | |
| 20260905221924 | 81 | 50 | 1.0 | 3.0 | 0.00 | 0.00 | 0.00 | 1011.5 | |
| 20260905221403 | 81 | 75 | 2.0 | 5.0 | 0.00 | 0.00 | 0.00 | 1011.5 | |
| 20260905220902 | 81 | 47 | 0.0 | 5.0 | 0.00 | 0.00 | 0.00 | 1011.9 | |
| 20260905220403 | 81 | 73 | 1.0 | 2.0 | 0.00 | 0.00 | 0.00 | 1011.5 | |
| 20260905215903 | 81 | 96 | 0.0 | 5.0 | 0.00 | 0.00 | 0.00 | 1010.9 | |
| 20260905215403 | 82 | 81 | 2.0 | 5.0 | 0.00 | 0.00 | 0.00 | 1011.5 | |
| 20260905214903 | 83 | 77 | 2.0 | 5.0 | 0.00 | 0.00 | 0.00 | 1011.5 | |
| 20260905214403 | 84 | 344 | 1.0 | 5.0 | 0.00 | 0.00 | 0.00 | 1011.5 | |
| 20260905213903 | 84 | 69 | 0.0 | 5.0 | 0.00 | 0.00 | 0.00 | 1011.2 | |
| 20260905213402 | 82 | 79 | 2.0 | 5.0 | 0.00 | 0.00 | 0.00 | 1011.2 | |
| 20260905212402 | 81 | 57 | 2.0 | 4.0 | 0.00 | 0.00 | 0.00 | 1011.2 | |
| 20260905211903 | 81 | 60 | 0.0 | 5.0 | 0.00 | 0.00 | 0.00 | 1011.2 | |
| 20260905211403 | 81 | 59 | 1.0 | 5.0 | 0.00 | 0.00 | 0.00 | 1011.9 | |
| 20260905210903 | 81 | 23 | 1.0 | 4.0 | 0.00 | 0.00 | 0.00 | 1011.2 | |
| 20260905210403 | 82 | 356 | 1.0 | 6.0 | 0.00 | 0.00 | 0.00 | 1011.9 | |
| 20260905205903 | 83 | 70 | 0.0 | 6.0 | 0.00 | 0.00 | 0.00 | 1011.9 | |
| 20260905205402 | 84 | 40 | 1.0 | 4.0 | 0.00 | 0.00 | 0.00 | 1011.9 | |
| 20260905204903 | 84 | 313 | 2.0 | 4.0 | 0.00 | 0.00 | 0.00 | 1011.9 | |
| 20260905204424 | 83 | 313 | 1.0 | 6.0 | 0.00 | 0.00 | 0.00 | 1011.9 | |
| 20260905203903 | 82 | 309 | 1.0 | 6.0 | 0.00 | 0.00 | 0.00 | 1011.9 | |
| 20260905203403 | 81 | 326 | 0.0 | 6.0 | 0.00 | 0.00 | 0.00 | 1011.9 | |
| 20260905202903 | 80 | 285 | 0.0 | 6.0 | 0.00 | 0.00 | 0.00 | 1011.5 | |
| 20260905202403 | 81 | 330 | 0.0 | 5.0 | 0.00 | 0.00 | 0.00 | 1012.2 | |
| 20260905201902 | 81 | 321 | 2.0 | 5.0 | 0.00 | 0.00 | 0.00 | 1011.9 | |
| 20260905201403 | 81 | 322 | 1.0 | 6.0 | 0.00 | 0.00 | 0.00 | 1011.9 | |
| 20260905200903 | 80 | 278 | 0.0 | 6.0 | 0.00 | 0.00 | 0.00 | 1012.2 | |
| 20260905200403 | 80 | 300 | 0.0 | 4.0 | 0.00 | 0.00 | 0.00 | 1012.2 | |
| 20260905195903 | 80 | 314 | 1.0 | 8.0 | 0.00 | 0.00 | 0.00 | 1012.2 | |
| 20260905195403 | 82 | 306 | 4.0 | 8.0 | 0.00 | 0.00 | 0.00 | 1012.6 | |
| 20260905194924 | 83 | 327 | 1.0 | 7.0 | 0.00 | 0.00 | 0.00 | 1011.9 | |
| 20260905194403 | 84 | 318 | 3.0 | 9.0 | 0.00 | 0.00 | 0.00 | 1012.2 | |
| 20260905193903 | 84 | 304 | 5.0 | 9.0 | 0.00 | 0.00 | 0.00 | 1012.6 | |
| 20260905193403 | 83 | 333 | 1.0 | 7.0 | 0.00 | 0.00 | 0.00 | 1012.6 | |
| 20260905192924 | 83 | 282 | 4.0 | 7.0 | 0.00 | 0.00 | 0.00 | 1012.6 | |
| 20260905192403 | 83 | 167 | 0.0 | 7.0 | 0.00 | 0.00 | 0.00 | 1012.6 | |
| 20260905191903 | 83 | 291 | 1.0 | 7.0 | 0.00 | 0.00 | 0.00 | 1012.6 | |
| 20260905191403 | 82 | 272 | 3.0 | 7.0 | 0.00 | 0.00 | 0.00 | 1012.6 | |
| 20260905190902 | 82 | 294 | 2.0 | 7.0 | 0.00 | 0.00 | 0.00 | 1012.6 | |
| 20260905190403 | 82 | 6 | 2.0 | 7.0 | 0.00 | 0.00 | 0.00 | 1012.6 | |
| 20260905185903 | 82 | 325 | 2.0 | 7.0 | 0.00 | 0.00 | 0.00 | 1012.6 | |
| 20260905185403 | 82 | 270 | 1.0 | 7.0 | 0.00 | 0.00 | 0.00 | 1012.9 | |
| 20260905184904 | 82 | 307 | 3.0 | 6.0 | 0.00 | 0.00 | 0.00 | 1013.2 | |
| 20260905184403 | 82 | 358 | 1.0 | 5.0 | 0.00 | 0.00 | 0.00 | 1013.2 | |
| 20260905183903 | 82 | 9 | 2.0 | 5.0 | 0.00 | 0.00 | 0.00 | 1012.9 | |
| 20260905183424 | 81 | 277 | 2.0 | 3.0 | 0.00 | 0.00 | 0.00 | 1013.2 | |
| 20260905182903 | 81 | 47 | 0.0 | 4.0 | 0.00 | 0.00 | 0.00 | 1013.6 | |
| 20260905182403 | 81 | 296 | 2.0 | 6.0 | 0.00 | 0.00 | 0.00 | 1013.9 | |
| 20260905181903 | 81 | 312 | 2.0 | 7.0 | 0.00 | 0.00 | 0.00 | 1013.2 | |
| 20260905181403 | 80 | 55 | 2.0 | 7.0 | 0.00 | 0.00 | 0.00 | 1013.2 | |
| 20260905180903 | 80 | 38 | 2.0 | 4.0 | 0.00 | 0.00 | 0.00 | 1013.2 | |
| 20260905180403 | 79 | 42 | 2.0 | 4.0 | 0.00 | 0.00 | 0.00 | 1013.2 | |
| 20260905175903 | 79 | 321 | 2.0 | 4.0 | 0.00 | 0.00 | 0.00 | 1012.9 | |
| 20260905175403 | 80 | 321 | 2.0 | 4.0 | 0.00 | 0.00 | 0.00 | 1013.2 | |
| 20260905174904 | 80 | 311 | 2.0 | 4.0 | 0.00 | 0.00 | 0.00 | 1012.9 | |
| 20260905174402 | 80 | 48 | 0.0 | 5.0 | 0.00 | 0.00 | 0.00 | 1012.9 | |
| 20260905173903 | 79 | 6 | 0.0 | 5.0 | 0.00 | 0.00 | 0.00 | 1013.2 | |
| 20260905173404 | 79 | 313 | 2.0 | 5.0 | 0.00 | 0.00 | 0.00 | 1012.9 | |
| 20260905172904 | 79 | 297 | 1.0 | 3.0 | 0.00 | 0.00 | 0.00 | 1013.6 | |
| 20260905172403 | 80 | 338 | 0.0 | 5.0 | 0.00 | 0.00 | 0.00 | 1013.6 | |
| 20260905171903 | 80 | 13 | 2.0 | 5.0 | 0.00 | 0.00 | 0.00 | 1013.6 | |
| 20260905171424 | 80 | 27 | 1.0 | 3.0 | 0.00 | 0.00 | 0.00 | 1013.2 | |
| 20260905170903 | 80 | 353 | 1.0 | 6.0 | 0.00 | 0.00 | 0.00 | 1013.6 | |
| 20260905170403 | 80 | 309 | 2.0 | 6.0 | 0.00 | 0.00 | 0.00 | 1013.2 | |
| 20260905164903 | 80 | 36 | 2.0 | 7.0 | 0.00 | 0.00 | 0.00 | 1012.9 | |
| 20260905164404 | 80 | 273 | 1.0 | 7.0 | 0.00 | 0.00 | 0.00 | 1013.2 | |
| 20260905163903 | 80 | 265 | 2.0 | 5.0 | 0.00 | 0.00 | 0.00 | 1013.6 | |
| 20260905163424 | 80 | 278 | 3.0 | 7.0 | 0.00 | 0.00 | 0.00 | 1013.9 | |
| 20260905162903 | 81 | 285 | 4.0 | 9.0 | 0.00 | 0.00 | 0.00 | 1013.9 | |
| 20260905162424 | 80 | 310 | 3.0 | 9.0 | 0.00 | 0.00 | 0.00 | 1013.6 | |
| 20260905161903 | 80 | 227 | 2.0 | 4.0 | 0.00 | 0.00 | 0.00 | 1013.9 | |
| 20260905161402 | 80 | 4 | 1.0 | 8.0 | 0.00 | 0.00 | 0.00 | 1013.6 | |
| 20260905160924 | 79 | 219 | 2.0 | 8.0 | 0.00 | 0.00 | 0.00 | 1013.6 | |
| 20260905160402 | 79 | 179 | 0.0 | 8.0 | 0.00 | 0.00 | 0.00 | 1013.2 | |
| 20260905155903 | 78 | 267 | 4.0 | 8.0 | 0.00 | 0.00 | 0.00 | 1013.6 | |
| 20260905155403 | 78 | 191 | 1.0 | 8.0 | 0.00 | 0.00 | 0.00 | 1013.9 | |
| 20260905154903 | 78 | 264 | 1.0 | 8.0 | 0.00 | 0.00 | 0.00 | 1013.6 | |
| 20260905154402 | 78 | 276 | 2.0 | 5.0 | 0.00 | 0.00 | 0.00 | 1013.9 | |
| 20260905153903 | 77 | 194 | 2.0 | 7.0 | 0.00 | 0.00 | 0.00 | 1013.9 | |
| 20260905153403 | 77 | 285 | 3.0 | 7.0 | 0.00 | 0.00 | 0.00 | 1013.9 | |
| 20260905152903 | 77 | 183 | 0.0 | 3.0 | 0.00 | 0.00 | 0.00 | 1013.2 | |
| 20260905152424 | 76 | 209 | 2.0 | 5.0 | 0.00 | 0.00 | 0.00 | 1013.2 | |
| 20260905151903 | 76 | 190 | 1.0 | 5.0 | 0.00 | 0.00 | 0.00 | 1013.6 | |
| 20260905151403 | 76 | 245 | 1.0 | 4.0 | 0.00 | 0.00 | 0.00 | 1013.9 | |
| 20260905150904 | 75 | 217 | 2.0 | 8.0 | 0.00 | 0.00 | 0.00 | 1014.3 | |
| 20260905150403 | 74 | 281 | 1.0 | 9.0 | 0.00 | 0.00 | 0.00 | 1013.6 | |
| 20260905145903 | 74 | 275 | 5.0 | 9.0 | 0.00 | 0.00 | 0.00 | 1013.2 | |
| 20260905145403 | 74 | 285 | 3.0 | 6.0 | 0.00 | 0.00 | 0.00 | 1013.2 | |
| 20260905144903 | 73 | 167 | 1.0 | 6.0 | 0.00 | 0.00 | 0.00 | 1013.6 | |
| 20260905144424 | 73 | 177 | 0.0 | 8.0 | 0.00 | 0.00 | 0.00 | 1013.6 | |
| 20260905143902 | 72 | 278 | 3.0 | 8.0 | 0.00 | 0.00 | 0.00 | 1013.2 | |
| 20260905143424 | 72 | 275 | 3.0 | 7.0 | 0.00 | 0.00 | 0.00 | 1012.9 | |
| 20260905142903 | 71 | 275 | 3.0 | 6.0 | 0.00 | 0.00 | 0.00 | 1013.2 | |
| 20260905142403 | 71 | 294 | 3.0 | 7.0 | 0.00 | 0.00 | 0.00 | 1013.6 | |
| 20260905141903 | 70 | 317 | 3.0 | 9.0 | 0.00 | 0.00 | 0.00 | 1013.2 | |
| 20260905141424 | 70 | 266 | 3.0 | 9.0 | 0.00 | 0.00 | 0.00 | 1012.6 | |
| 20260905140903 | 70 | 272 | 1.0 | 5.0 | 0.00 | 0.00 | 0.00 | 1012.9 | |
| 20260905140403 | 69 | 248 | 1.0 | 7.0 | 0.00 | 0.00 | 0.00 | 1012.9 | |
| 20260905135903 | 69 | 227 | 1.0 | 7.0 | 0.00 | 0.00 | 0.00 | 1012.9 | |
| 20260905135403 | 69 | 286 | 1.0 | 6.0 | 0.00 | 0.00 | 0.00 | 1012.9 | |
| 20260905134902 | 69 | 210 | 0.0 | 6.0 | 0.00 | 0.00 | 0.00 | 1012.6 | |
| 20260905134424 | 68 | 199 | 0.0 | 6.0 | 0.00 | 0.00 | 0.00 | 1012.6 | |
| 20260905133903 | 68 | 196 | 0.0 | 5.0 | 0.00 | 0.00 | 0.00 | 1013.2 | |
| 20260905133403 | 68 | 266 | 0.0 | 6.0 | 0.00 | 0.00 | 0.00 | 1013.2 | |
| 20260905132903 | 68 | 227 | 0.0 | 6.0 | 0.00 | 0.00 | 0.00 | 1013.2 | |
| 20260905132403 | 68 | 350 | 0.0 | 5.0 | 0.00 | 0.00 | 0.00 | 1012.9 | |
| 20260905131903 | 68 | 190 | 1.0 | 6.0 | 0.00 | 0.00 | 0.00 | 1012.9 | |
| 20260905131403 | 68 | 203 | 2.0 | 6.0 | 0.00 | 0.00 | 0.00 | 1013.6 | |
| 20260905130903 | 68 | 205 | 0.0 | 6.0 | 0.00 | 0.00 | 0.00 | 1013.2 | |
| 20260905130402 | 68 | 190 | 0.0 | 5.0 | 0.00 | 0.00 | 0.00 | 1013.2 | |
| 20260905125903 | 67 | 224 | 0.0 | 5.0 | 0.00 | 0.00 | 0.00 | 1013.2 | |
| 20260905125402 | 67 | 208 | 0.0 | 5.0 | 0.00 | 0.00 | 0.00 | 1013.6 | |
| 20260905124903 | 67 | 155 | 2.0 | 3.0 | 0.00 | 0.00 | 0.00 | 1012.9 | |
| 20260905124424 | 67 | 166 | 1.0 | 3.0 | 0.00 | 0.00 | 0.00 | 1013.6 | |
| 20260905123903 | 67 | 155 | 3.0 | 6.0 | 0.00 | 0.00 | 0.00 | 1013.2 | |
| 20260905123403 | 67 | 145 | 1.0 | 6.0 | 0.00 | 0.00 | 0.00 | 1013.9 | |
| 20260905122903 | 67 | 133 | 0.0 | 6.0 | 0.00 | 0.00 | 0.00 | 1013.9 | |
| 20260905122404 | 67 | 253 | 3.0 | 6.0 | 0.00 | 0.00 | 0.00 | 1013.6 | |
| 20260905121903 | 67 | 186 | 0.0 | 6.0 | 0.00 | 0.00 | 0.00 | 1013.6 | |
| 20260905121404 | 67 | 319 | 0.0 | 6.0 | 0.00 | 0.00 | 0.00 | 1013.9 | |
| 20260905115904 | 67 | 40 | 1.0 | 5.0 | 0.00 | 0.00 | 0.00 | 1014.6 | |
| 20260905115403 | 66 | 62 | 2.0 | 5.0 | 0.00 | 0.00 | 0.00 | 1013.9 | |
| 20260905114903 | 66 | 40 | 1.0 | 6.0 | 0.00 | 0.00 | 0.00 | 1013.9 | |
| 20260905114402 | 66 | 14 | 1.0 | 6.0 | 0.00 | 0.00 | 0.00 | 1013.9 | |
| 20260905113903 | 66 | 30 | 1.0 | 5.0 | 0.00 | 0.00 | 0.00 | 1013.9 | |
| 20260905113403 | 66 | 10 | 1.0 | 5.0 | 0.00 | 0.00 | 0.00 | 1013.9 | |
| 20260905112903 | 66 | 68 | 3.0 | 5.0 | 0.00 | 0.00 | 0.00 | 1013.9 | |
| 20260905112403 | 66 | 85 | 2.0 | 5.0 | 0.00 | 0.00 | 0.00 | 1014.3 | |
| 20260905111903 | 66 | 83 | 2.0 | 5.0 | 0.00 | 0.00 | 0.00 | 1013.9 | |
| 20260905111403 | 66 | 116 | 1.0 | 6.0 | 0.00 | 0.00 | 0.00 | 1013.9 | |
| 20260905110903 | 66 | 335 | 1.0 | 6.0 | 0.00 | 0.00 | 0.00 | 1014.9 | |
| 20260905110403 | 66 | 63 | 3.0 | 5.0 | 0.00 | 0.00 | 0.00 | 1014.6 | |
| 20260905105903 | 66 | 29 | 2.0 | 7.0 | 0.00 | 0.00 | 0.00 | 1014.6 | |
| 20260905105403 | 66 | 47 | 3.0 | 8.0 | 0.00 | 0.00 | 0.00 | 1014.6 | |
| 20260905104902 | 66 | 58 | 3.0 | 8.0 | 0.00 | 0.00 | 0.00 | 1014.3 | |
| 20260905104403 | 66 | 50 | 3.0 | 9.0 | 0.00 | 0.00 | 0.00 | 1014.3 | |
| 20260905103904 | 66 | 62 | 3.0 | 9.0 | 0.00 | 0.00 | 0.00 | 1014.6 | |
| 20260905103403 | 66 | 42 | 2.0 | 8.0 | 0.00 | 0.00 | 0.00 | 1014.6 | |
| 20260905102903 | 66 | 26 | 3.0 | 8.0 | 0.00 | 0.00 | 0.00 | 1014.9 | |
| 20260905102403 | 66 | 40 | 4.0 | 9.0 | 0.00 | 0.00 | 0.00 | 1015.3 | |
| 20260905101903 | 66 | 14 | 3.0 | 10.0 | 0.00 | 0.00 | 0.00 | 1015.6 | |
| 20260905101403 | 66 | 359 | 4.0 | 10.0 | 0.00 | 0.00 | 0.00 | 1015.6 | |
| 20260905100903 | 66 | 28 | 5.0 | 10.0 | 0.00 | 0.00 | 0.00 | 1016.0 | |
| 20260905100403 | 66 | 39 | 5.0 | 10.0 | 0.00 | 0.00 | 0.00 | 1015.6 | |
| 20260905095903 | 66 | 36 | 3.0 | 8.0 | 0.00 | 0.00 | 0.00 | 1015.6 |